QPF
0.00 0.00 0.00 0.00 0.00 0.00 0.00 0.00 0.00 0.00 0.00 0.00 0.00 0.00 0.00 0.00 0.00 0.00 0.00 0.00 0.00 0.00 0.00 0.00 0.00 0.00 0.00 0.00 0.00 0.00 0.00 0.00 0.00 0.00 0.00 0.00 0.00 0.00 0.00 0.00 0.00 0.00 0.00 0.00
0.00 0.00 0.00 0.00 0.00 0.00 0.00 0.00 0.00 0.00 0.00 0.00 0.00 0.00 0.00 0.00 0.00 0.00 0.00 0.00 0.00 0.00 0.00 0.00 0.00 0.00 0.00 0.00 0.00 0.00 0.00 0.00 0.00 0.00 0.00 0.00 0.00 0.00 0.00 0.00 0.00 0.00 0.00 0.00
0.00 0.00 0.00 0.00 0.00 0.00 0.00 0.00 0.00 0.00 0.00 0.00 0.00 0.00 0.00 0.00 0.00 0.00 0.00 0.00 0.00 0.00 0.00 0.00 0.00 0.00 0.00 0.00 0.00 0.00 0.00 0.00 0.00 0.00 0.00 0.00 0.00 0.00 0.00 0.00 0.00 0.00 0.00 0.00
0.00 0.00 0.00 0.00 0.00 0.00 0.00 0.00 0.00 0.00 0.00 0.00 0.00 0.00 0.00 0.00 0.00 0.00 0.00 0.00 0.00 0.00 0.00 0.00 0.00 0.00 0.00 0.00 0.00 0.00 0.00 0.00 0.00 0.00 0.00 0.00 0.00 0.00 0.00 0.00 0.00 0.00 0.00 0.00
0.00 0.00 0.00 0.00 0.00 0.00 0.00 0.00 0.00 0.00 0.00 0.00 0.00 0.00 0.00 0.00 0.00 0.00 0.00 0.00 0.00 0.00 0.00 0.00 0.00 0.00 0.00 0.00 0.00 0.00 0.00 0.00 0.00 0.00 0.00 0.00 0.00 0.00 0.00 0.00 0.00 0.00 0.00 0.00
0.00 0.00 0.00 0.00 0.00 0.00 0.00 0.00 0.00 0.00 0.00 0.00 0.00 0.00 0.00 0.00 0.00 0.00 0.00 0.00 0.00 0.00 0.00 0.00 0.00 0.00 0.00 0.00 0.00 0.00 0.00 0.00 0.00 0.00 0.00 0.00 0.00 0.00 0.00 0.00 0.00 0.00 0.00 0.00
0.00 0.00 0.00 0.00 0.00 0.00 0.00 0.00 0.00 0.00 0.00 0.00 0.00 0.00 0.00 0.00 0.00 0.00 0.00 0.00 0.00 0.00 0.00 0.00 0.00 0.00 0.00 0.00 0.00 0.00 0.00 0.00 0.00 0.00 0.00 0.00 0.00 0.00 0.00 0.00 0.00 0.00 0.00 0.00
0.00 0.00 0.00 0.00 0.00 0.00 0.00 0.00 0.00 0.00 0.00 0.00 0.00 0.00 0.00 0.00 0.00 0.00 0.00 0.00 0.00 0.00 0.00 0.00 0.00 0.00 0.00 0.00 0.00 0.00 0.00 0.00 0.00 0.00 0.00 0.00 0.00 0.00 0.00 0.00 0.00 0.00 0.00 0.00
0.00 0.00 0.00 0.00 0.00 0.00 0.00 0.00 0.00 0.00 0.00 0.00 0.00 0.00 0.00 0.00 0.00 0.00 0.00 0.00 0.00 0.00 0.00 0.00 0.00 0.00 0.00 0.00 0.00 0.00 0.00 0.00 0.00 0.00 0.00 0.00 0.00 0.00 0.00 0.00 0.00 0.00 0.00 0.00
0.00 0.00 0.00 0.00 0.00 0.00 0.00 0.00 0.00 0.00 0.00 0.00 0.00 0.00 0.00 0.00 0.00 0.00 0.00 0.00 0.00 0.00 0.00 0.00 0.00 0.00 0.00 0.00 0.00 0.00 0.00 0.00 0.00 0.00 0.00 0.00 0.00 0.00 0.00 0.00 0.00 0.00 0.00 0.00
0.00 0.00 0.00 0.00 0.00 0.00 0.00 0.00 0.00 0.00 0.00 0.00 0.00 0.00 0.00 0.00 0.00 0.00 0.00 0.00 0.00 0.00 0.00 0.00 0.00 0.00 0.00 0.00 0.00 0.00 0.00 0.00 0.00 0.00 0.00 0.00 0.00 0.00 0.00 0.00 0.00 0.00 0.00 0.00
0.00 0.00 0.00 0.00 0.00 0.00 0.00 0.00 0.00 0.00 0.00 0.00 0.00 0.00 0.00 0.00 0.00 0.00 0.00 0.00 0.00 0.00 0.00 0.00 0.00 0.00 0.00 0.00 0.00 0.00 0.00 0.00 0.00 0.00 0.00 0.00 0.00 0.00 0.00 0.00 0.00 0.00 0.00 0.00
0.00 0.00 0.00 0.00 0.00 0.00 0.00 0.00 0.00 0.00 0.00 0.00 0.00 0.00 0.00 0.00 0.00 0.00 0.00 0.00 0.00 0.00 0.00 0.00 0.00 0.00 0.00 0.00 0.00 0.00 0.00 0.00 0.00 0.00 0.00 0.00 0.00 0.00 0.00 0.00 0.00 0.00 0.00 0.00
0.00 0.00 0.00 0.00 0.00 0.00 0.00 0.00 0.00 0.00 0.00 0.00 0.00 0.00 0.00 0.00 0.00 0.00 0.00 0.00 0.00 0.00 0.00 0.00 0.00 0.00 0.00 0.00 0.00 0.00 0.00 0.00 0.00 0.00 0.00 0.00 0.00 0.00 0.00 0.00 0.00 0.00 0.00 0.00
0.00 0.00 0.00 0.00 0.00 0.00 0.00 0.00 0.00 0.00 0.00 0.00 0.00 0.00 0.00 0.00 0.00 0.00 0.00 0.00 0.00 0.00 0.00 0.00 0.00 0.00 0.00 0.00 0.00 0.00 0.00 0.00 0.00 0.00 0.00 0.00 0.00 0.00 0.00 0.00 0.00 0.00 0.00 0.00
0.00 0.00 0.00 0.00 0.00 0.00 0.00 0.00 0.00 0.00 0.00 0.00 0.00 0.00 0.00 0.00 0.00 0.00 0.00 0.00 0.00 0.00 0.00 0.00 0.00 0.00 0.00 0.00 0.00 0.00 0.00 0.00 0.00 0.00 0.00 0.00 0.00 0.00 0.00 0.00 0.00 0.00 0.00 0.00
0.00 0.00 0.00 0.00 0.00 0.00 0.00 0.00 0.00 0.00 0.00 0.00 0.00 0.00 0.00 0.00 0.00 0.00 0.00 0.00 0.00 0.00 0.00 0.00 0.00 0.00 0.00 0.00 0.00 0.00 0.00 0.00 0.00 0.00 0.00 0.00 0.00 0.00 0.00 0.00 0.00 0.00 0.00 0.00
0.00 0.00 0.00 0.00 0.00 0.00 0.00 0.00 0.00 0.00 0.00 0.00 0.00 0.00 0.00 0.00 0.00 0.00 0.00 0.00 0.00 0.00 0.00 0.00 0.00 0.00 0.00 0.00 0.00 0.00 0.00 0.00 0.00 0.00 0.00 0.00 0.00 0.00 0.00 0.00 0.00 0.00 0.00 0.00
0.00 0.00 0.00 0.00 0.00 0.00 0.00 0.00 0.00 0.00 0.00 0.00 0.00 0.00 0.00 0.00 0.00 0.00 0.00 0.00 0.00 0.00 0.00 0.00 0.00 0.00 0.00 0.00 0.00 0.00 0.00 0.00 0.00 0.00 0.00 0.00 0.00 0.00 0.00 0.00 0.00 0.00 0.00 0.00
0.00 0.00 0.00 0.00 0.00 0.00 0.00 0.00 0.00 0.00 0.00 0.00 0.00 0.00 0.00 0.00 0.00 0.00 0.00 0.00 0.00 0.00 0.00 0.00 0.00 0.00 0.00 0.00 0.00 0.00 0.00 0.00 0.00 0.00 0.00 0.00 0.00 0.00 0.00 0.00 0.00 0.00 0.00 0.00
0.01 0.01 0.01 0.00 0.00 0.00 0.00 0.00 0.00 0.00 0.00 0.00 0.00 0.00 0.00 0.00 0.00 0.00 0.00 0.00 0.00 0.00 0.00 0.00 0.00 0.00 0.00 0.00 0.00 0.00 0.00 0.00 0.00 0.00 0.00 0.00 0.00 0.00 0.00 0.00 0.00 0.00 0.03 0.03
0.06 0.09 0.03 0.00 0.00 0.00 0.00 0.00 0.00 0.00 0.00 0.00 0.00 0.00 0.00 0.00 0.00 0.00 0.00 0.00 0.00 0.00 0.00 0.00 0.00 0.00 0.00 0.00 0.00 0.00 0.00 0.00 0.00 0.00 0.00 0.00 0.00 0.00 0.00 0.00 0.00 0.03 0.18 0.08
0.07 0.02 0.00 0.01 0.02 0.02 0.01 0.02 0.00 0.00 0.00 0.00 0.00 0.00 0.00 0.00 0.00 0.00 0.00 0.00 0.00 0.00 0.00 0.00 0.00 0.00 0.00 0.00 0.00 0.00 0.00 0.00 0.00 0.00 0.00 0.00 0.03 0.02 0.00 0.01 0.12 0.26 0.25 0.17
0.04 0.02 0.01 0.03 0.02 0.03 0.02 0.08 0.05 0.00 0.00 0.00 0.00 0.00 0.00 0.00 0.00 0.00 0.00 0.00 0.00 0.00 0.00 0.00 0.00 0.00 0.00 0.00 0.00 0.00 0.00 0.00 0.00 0.00 0.00 0.02 0.10 0.08 0.08 0.19 0.32 0.30 0.24 0.20
0.04 0.05 0.04 0.06 0.04 0.08 0.06 0.01 0.01 0.01 0.02 0.01 0.00 0.00 0.00 0.00 0.00 0.00 0.00 0.00 0.00 0.00 0.00 0.00 0.00 0.00 0.00 0.00 0.00 0.00 0.00 0.00 0.00 0.00 0.00 0.04 0.11 0.19 0.33 0.46 0.47 0.40 0.28 0.16
0.04 0.05 0.10 0.08 0.06 0.10 0.12 0.07 0.03 0.01 0.00 0.01 0.01 0.00 0.00 0.00 0.00 0.00 0.00 0.00 0.00 0.00 0.01 0.02 0.08 0.14 0.14 0.12 0.11 0.08 0.05 0.04 0.15 0.29 0.40 0.47 0.42 0.43 0.41 0.31 0.35 0.31 0.27 0.11
MSLP
1002.60 1003.25 1003.12 1003.47 1003.73 1003.58 1003.63 1003.39 1002.83 1001.22 1000.91 1001.90 1001.34 1002.19 1003.07 1003.81 1004.74 1005.16 1005.60 1006.04 1006.48 1006.40 1006.90 1007.77 1008.58 1009.28 1010.02 1010.64 1011.01 1011.35 1012.03 1012.73 1013.41 1014.04 1014.44 1014.77 1014.94 1015.00 1015.06 1015.06 1015.12 1015.31 1015.55 1015.86
1002.72 1002.33 1002.71 1003.01 1003.15 1003.21 1003.12 1002.88 1002.08 1001.50 1000.98 1001.46 1002.11 1001.80 1002.24 1003.06 1003.23 1003.40 1004.37 1005.24 1005.66 1006.02 1006.50 1006.99 1007.88 1008.57 1009.14 1009.75 1010.34 1010.87 1011.42 1012.24 1012.95 1013.24 1013.75 1014.18 1014.43 1014.53 1014.58 1014.76 1014.93 1014.97 1015.28 1015.45
1001.82 1001.57 1001.95 1002.26 1002.42 1002.62 1002.30 1002.19 1001.54 1001.95 1001.36 1001.23 1001.94 1002.63 1003.01 1003.31 1003.41 1003.63 1003.76 1003.90 1004.53 1004.86 1005.49 1006.21 1006.89 1007.49 1008.08 1008.75 1009.47 1010.07 1010.75 1011.51 1012.19 1012.76 1013.47 1014.05 1014.39 1014.57 1014.69 1014.78 1014.80 1014.79 1014.90 1015.34
1001.18 1001.03 1001.11 1001.26 1001.38 1001.85 1001.68 1001.12 1001.56 1002.04 1002.23 1001.68 1001.47 1002.71 1003.06 1003.01 1003.08 1003.17 1003.35 1003.51 1003.62 1004.14 1004.57 1004.89 1005.56 1006.41 1007.05 1007.56 1008.43 1009.17 1009.95 1010.72 1011.45 1012.10 1012.79 1013.42 1013.83 1014.24 1014.18 1014.23 1014.30 1014.39 1014.61 1015.04
999.70 999.68 999.92 1000.07 1000.07 1000.58 1000.25 1001.21 1001.51 1002.10 1002.47 1002.57 1002.19 1002.61 1001.96 1001.95 1002.46 1002.47 1002.25 1002.20 1002.25 1002.69 1003.33 1003.83 1004.25 1004.74 1005.40 1006.56 1007.52 1008.25 1008.95 1009.92 1010.62 1011.29 1011.86 1012.57 1013.16 1013.42 1013.41 1013.79 1014.11 1014.35 1014.51 1014.63
998.96 998.90 999.00 998.86 999.39 999.84 1000.35 1001.05 1001.38 1001.92 1002.67 1002.76 1002.16 1002.14 1001.33 1000.33 1000.19 1000.52 1000.80 1000.75 1000.78 1001.52 1002.17 1002.71 1002.84 1003.83 1004.79 1005.68 1006.66 1007.55 1008.39 1009.16 1009.82 1010.49 1011.08 1011.59 1012.21 1012.75 1013.14 1013.54 1013.99 1014.26 1014.34 1014.54
998.58 998.31 998.06 998.17 998.90 999.14 999.87 1001.02 1002.06 1002.28 1002.36 1001.53 1001.51 1001.40 999.61 998.46 998.32 998.19 998.84 999.02 999.41 1000.10 1000.92 1001.72 1002.62 1003.33 1004.08 1004.86 1005.75 1006.73 1007.65 1008.47 1009.15 1009.69 1010.21 1010.79 1011.36 1011.87 1012.44 1013.00 1013.44 1013.80 1014.07 1014.35
998.31 997.89 997.27 996.74 997.27 998.07 998.92 999.95 1000.67 1001.86 1001.92 1001.76 1001.06 999.95 997.84 997.23 996.62 996.43 996.66 997.15 998.27 999.00 999.57 1000.25 1000.93 1001.70 1002.49 1003.51 1004.62 1005.61 1006.65 1007.59 1008.44 1009.05 1009.55 1010.03 1010.58 1011.05 1011.71 1012.31 1012.73 1012.95 1013.20 1013.60
998.00 997.19 996.28 996.13 996.33 996.94 997.78 998.52 999.77 1001.18 1001.45 1001.23 999.96 998.68 997.09 996.39 996.13 995.72 995.82 996.60 997.12 997.62 998.35 998.59 999.44 1000.17 1001.01 1002.32 1003.34 1004.24 1005.51 1006.56 1007.39 1007.99 1008.61 1009.23 1009.81 1010.34 1011.04 1011.56 1012.02 1012.22 1012.67 1013.11
996.69 996.75 995.66 995.38 995.54 995.72 996.29 997.63 999.25 999.96 1000.35 1000.45 999.31 997.87 996.15 995.89 995.77 995.49 995.59 995.61 995.65 996.24 996.94 997.39 998.37 998.95 999.88 1000.66 1001.85 1003.26 1004.24 1005.11 1006.06 1007.00 1007.63 1008.25 1008.92 1009.56 1010.32 1010.97 1011.37 1011.80 1012.17 1012.62
996.62 997.03 995.86 995.30 994.64 994.96 995.79 996.39 997.33 998.21 999.05 999.07 998.71 995.60 995.18 995.17 995.06 994.85 994.47 994.25 994.33 994.62 995.52 996.33 996.93 997.72 998.38 999.63 1001.00 1002.27 1003.52 1004.52 1005.48 1006.26 1006.93 1007.50 1008.08 1008.82 1009.55 1010.13 1010.57 1011.01 1011.54 1011.98
997.44 996.42 995.27 994.18 993.49 993.53 994.19 994.88 996.16 997.26 998.08 997.99 997.19 992.81 993.88 994.18 994.30 994.14 993.92 993.03 992.97 994.01 994.82 995.36 995.90 996.70 998.07 999.28 1000.18 1001.16 1002.43 1003.46 1004.33 1005.17 1006.02 1006.61 1007.25 1008.02 1008.71 1009.12 1009.67 1010.22 1010.60 1011.02
999.55 996.37 996.01 994.20 993.62 993.14 993.51 993.75 994.21 995.22 996.15 996.06 995.93 993.77 993.35 993.93 993.96 993.48 993.64 993.62 993.61 994.06 994.87 995.65 996.07 996.45 997.14 998.14 999.15 1000.27 1001.18 1002.08 1003.19 1004.33 1005.09 1005.77 1006.41 1007.07 1007.52 1007.97 1008.59 1009.28 1009.71 1010.25
1000.62 998.45 996.12 993.64 992.46 992.57 992.48 992.48 992.96 993.61 994.25 994.85 992.89 994.13 993.61 993.76 993.89 993.74 993.11 992.92 992.73 993.10 993.82 994.32 995.25 996.08 996.35 997.10 998.02 999.22 999.95 1001.02 1001.99 1003.16 1004.01 1004.69 1005.27 1005.73 1006.23 1006.86 1007.58 1008.18 1008.73 1009.48
1002.91 1000.42 997.49 994.88 993.11 991.39 990.72 990.78 991.36 991.47 991.82 992.00 992.27 993.27 993.54 993.35 993.29 993.11 992.82 992.24 992.70 992.45 992.64 992.52 993.75 994.64 995.36 996.27 997.12 998.22 999.17 1000.14 1000.89 1001.96 1002.78 1003.20 1004.04 1004.62 1005.39 1006.07 1006.59 1007.23 1007.88 1008.44
1004.10 1002.03 999.00 995.42 992.92 991.22 990.00 989.91 989.41 989.53 990.34 990.82 991.35 991.89 991.90 991.85 992.02 992.27 992.40 992.45 992.04 992.24 991.93 992.41 992.57 992.85 993.80 994.95 995.95 996.88 997.83 998.77 999.98 1001.18 1001.44 1002.18 1003.15 1003.86 1004.41 1005.13 1005.72 1006.47 1007.12 1007.67
1005.04 1002.82 1000.51 996.55 993.31 991.06 989.99 986.79 988.01 988.78 989.23 989.59 990.26 991.02 991.21 991.53 991.56 991.62 991.44 991.63 991.70 991.22 991.29 991.81 992.05 992.23 992.91 993.29 994.12 995.55 996.36 997.48 998.71 999.64 1000.49 1001.38 1002.05 1002.87 1003.52 1004.27 1005.05 1005.62 1006.27 1007.12
1003.70 1002.93 1001.49 997.67 994.57 990.97 985.74 986.62 987.06 988.15 988.51 988.92 989.71 989.95 990.07 990.42 990.50 990.74 990.32 990.69 990.78 991.06 991.42 990.60 991.17 991.99 992.05 992.69 993.64 994.15 995.38 996.55 997.55 998.61 999.58 1000.38 1001.11 1001.69 1002.75 1003.55 1004.07 1004.75 1005.46 1006.12
1001.72 1001.71 1000.56 998.28 994.97 990.28 987.53 986.55 986.47 987.52 988.28 988.57 988.98 989.24 989.48 989.57 990.65 990.90 990.28 990.04 989.93 990.21 990.29 990.10 990.09 991.22 992.32 992.65 992.90 994.17 995.19 996.02 996.97 997.74 998.45 999.11 999.91 1000.66 1001.57 1002.32 1002.99 1003.79 1004.62 1005.37
998.96 999.20 999.61 998.06 996.16 991.56 988.11 986.67 985.84 987.42 988.65 988.24 988.24 988.84 989.46 990.06 991.03 991.27 990.50 989.89 989.66 989.61 989.71 990.03 990.06 990.38 990.79 992.04 992.98 993.32 994.04 995.25 995.94 996.53 996.92 997.69 998.74 999.69 1000.24 1001.15 1002.20 1002.88 1003.63 1004.28
998.33 998.62 998.96 998.07 996.75 992.55 989.75 987.46 986.21 987.96 989.19 988.43 988.45 988.60 989.24 989.96 990.04 990.31 990.21 990.13 989.69 989.43 989.36 989.82 990.35 990.62 990.19 990.99 991.97 992.96 993.91 994.09 994.01 994.82 995.50 996.64 997.52 998.38 999.30 1000.38 1001.46 1002.28 1002.98 1003.72
998.61 999.01 998.94 998.07 996.28 993.74 991.21 988.93 988.36 988.28 989.02 988.81 989.38 989.52 989.87 990.46 990.64 991.00 990.78 990.47 990.23 989.99 989.82 989.73 990.32 990.74 990.63 991.16 991.54 991.81 992.72 992.28 992.91 994.11 995.35 996.07 996.78 997.47 998.61 999.55 1000.59 1001.64 1002.56 1003.36
998.49 998.17 997.76 998.10 996.86 995.52 993.96 992.67 990.47 988.90 989.58 990.03 990.21 990.49 990.46 991.13 991.59 991.62 991.67 991.49 991.36 991.26 991.09 990.99 990.63 990.69 990.86 990.99 991.17 991.16 990.83 991.52 992.45 993.41 994.55 995.17 996.17 996.55 997.55 998.73 999.93 1000.99 1002.08 1003.01
997.63 997.35 997.61 997.56 996.54 996.56 995.68 994.20 992.14 990.76 990.93 990.78 990.86 991.60 991.76 992.08 992.51 992.49 992.33 992.36 992.24 992.28 992.23 992.07 991.96 991.78 991.24 990.53 990.63 990.59 990.60 990.88 991.61 992.62 993.68 994.79 995.58 996.20 997.18 998.48 999.40 1000.39 1001.51 1002.36
997.25 996.48 997.54 998.01 997.25 996.79 996.63 995.62 994.11 992.54 992.45 992.36 991.91 992.27 992.99 992.97 993.41 993.36 993.48 993.36 993.08 992.97 992.96 992.92 992.77 992.63 992.59 992.12 991.43 990.48 990.91 991.51 992.74 993.22 993.38 994.43 996.15 997.22 998.33 999.34 1000.01 1000.56 1000.93 1000.09
997.86 997.45 997.68 998.53 998.93 998.97 998.29 997.17 994.86 993.59 993.89 994.23 993.83 993.41 993.93 993.95 994.00 994.11 994.31 994.22 994.06 993.88 993.64 993.74 993.93 993.88 993.84 993.59 993.51 993.21 992.74 991.45 991.97 993.45 994.98 995.31 995.99 997.23 999.19 999.31 1001.02 1002.25 1001.10 1000.61
Thickness
5804 5780 5779 5787 5792 5801 5799 5795 5793 5821 5843 5820 5827 5824 5822 5826 5822 5820 5822 5821 5820 5825 5831 5830 5825 5823 5821 5819 5817 5816 5813 5811 5807 5801 5797 5795 5794 5797 5798 5797 5797 5797 5795 5791
5788 5778 5796 5801 5800 5798 5797 5793 5800 5817 5836 5823 5814 5826 5831 5830 5833 5836 5830 5828 5827 5828 5830 5832 5830 5827 5826 5823 5822 5820 5816 5812 5808 5806 5804 5802 5800 5801 5802 5800 5799 5799 5797 5795
5783 5796 5806 5800 5794 5790 5794 5792 5805 5801 5821 5833 5817 5803 5811 5822 5829 5832 5836 5841 5841 5836 5834 5834 5834 5833 5832 5829 5827 5826 5821 5816 5812 5810 5806 5802 5801 5801 5799 5799 5800 5800 5799 5795
5791 5806 5800 5794 5791 5793 5773 5819 5817 5807 5795 5782 5822 5763 5796 5813 5814 5822 5831 5837 5844 5841 5843 5845 5843 5838 5837 5837 5835 5832 5827 5822 5818 5815 5810 5805 5800 5796 5801 5802 5805 5803 5800 5794
5795 5803 5799 5792 5800 5807 5803 5814 5809 5806 5792 5793 5796 5769 5791 5817 5804 5813 5832 5845 5853 5854 5852 5848 5851 5852 5851 5846 5840 5837 5834 5828 5824 5820 5817 5811 5805 5806 5807 5806 5803 5800 5798 5795
5808 5820 5811 5810 5813 5812 5820 5803 5802 5801 5781 5745 5787 5787 5776 5815 5827 5835 5840 5853 5862 5859 5859 5855 5862 5859 5853 5851 5845 5839 5834 5830 5828 5824 5821 5816 5811 5808 5804 5803 5800 5798 5797 5795
5798 5801 5815 5819 5794 5807 5802 5777 5739 5743 5742 5741 5784 5773 5808 5840 5851 5856 5854 5860 5867 5868 5864 5860 5855 5855 5853 5849 5846 5841 5836 5830 5829 5827 5824 5821 5817 5814 5808 5804 5801 5798 5795 5791
5765 5761 5803 5825 5809 5797 5785 5785 5750 5719 5724 5747 5783 5759 5808 5854 5867 5875 5878 5875 5870 5869 5871 5870 5869 5864 5862 5858 5852 5845 5838 5832 5828 5826 5824 5822 5820 5817 5812 5808 5806 5802 5799 5796
5754 5769 5818 5819 5822 5815 5792 5769 5797 5757 5765 5748 5770 5795 5831 5851 5855 5868 5872 5869 5869 5875 5876 5882 5880 5876 5871 5863 5858 5853 5844 5838 5833 5830 5827 5823 5821 5818 5814 5811 5808 5806 5802 5800
5782 5756 5803 5816 5818 5816 5805 5803 5768 5745 5738 5733 5759 5778 5797 5829 5845 5853 5862 5870 5877 5880 5883 5889 5881 5881 5878 5875 5868 5860 5854 5847 5842 5836 5832 5828 5823 5819 5816 5812 5808 5807 5804 5802
5787 5762 5784 5797 5787 5790 5793 5782 5781 5782 5765 5752 5734 5783 5828 5835 5846 5854 5868 5879 5888 5890 5886 5888 5888 5889 5892 5881 5871 5863 5855 5849 5843 5839 5835 5830 5825 5820 5816 5814 5812 5809 5807 5805
5758 5765 5761 5779 5809 5819 5810 5795 5781 5766 5748 5756 5781 5804 5857 5853 5858 5863 5870 5888 5898 5896 5887 5887 5893 5890 5885 5875 5872 5868 5860 5853 5849 5846 5839 5834 5829 5822 5817 5817 5816 5812 5808 5807
5720 5749 5739 5757 5778 5793 5776 5798 5808 5773 5770 5772 5755 5788 5849 5849 5854 5863 5865 5872 5878 5878 5875 5875 5882 5884 5883 5880 5874 5870 5868 5862 5856 5849 5844 5838 5833 5827 5824 5823 5821 5818 5815 5810
5699 5722 5738 5758 5775 5786 5770 5793 5797 5796 5776 5775 5788 5791 5829 5838 5843 5849 5864 5875 5879 5880 5881 5881 5874 5876 5884 5883 5879 5874 5873 5868 5862 5854 5849 5843 5840 5837 5833 5830 5826 5822 5819 5813
5662 5678 5721 5743 5770 5794 5793 5797 5799 5791 5805 5788 5808 5790 5812 5832 5843 5851 5861 5876 5874 5880 5884 5891 5883 5881 5881 5881 5881 5877 5874 5869 5867 5859 5855 5853 5848 5843 5837 5833 5830 5826 5821 5817
5640 5654 5681 5717 5762 5779 5781 5794 5804 5807 5808 5804 5800 5798 5827 5847 5847 5852 5854 5858 5866 5873 5880 5878 5887 5892 5887 5883 5883 5881 5879 5875 5868 5858 5860 5858 5850 5845 5841 5837 5832 5826 5821 5817
5617 5634 5652 5680 5740 5763 5749 5796 5796 5799 5809 5811 5786 5809 5827 5830 5842 5846 5851 5855 5867 5875 5880 5875 5881 5887 5888 5891 5892 5883 5884 5882 5873 5866 5861 5857 5854 5847 5843 5838 5832 5827 5823 5816
5620 5624 5632 5662 5697 5703 5799 5814 5814 5798 5806 5813 5813 5820 5831 5837 5844 5855 5861 5861 5865 5872 5874 5882 5884 5884 5890 5893 5890 5892 5886 5879 5874 5868 5861 5857 5854 5850 5843 5836 5832 5827 5822 5816
5627 5625 5632 5647 5672 5737 5778 5789 5797 5782 5787 5811 5812 5821 5832 5841 5833 5835 5855 5864 5868 5872 5876 5884 5891 5888 5881 5885 5889 5881 5874 5872 5866 5864 5863 5860 5857 5851 5845 5838 5833 5828 5822 5815
5637 5640 5634 5652 5660 5692 5765 5793 5815 5804 5760 5811 5819 5816 5820 5823 5793 5806 5843 5860 5867 5872 5877 5877 5885 5887 5890 5880 5876 5875 5871 5866 5863 5865 5868 5866 5859 5852 5848 5842 5834 5829 5823 5817
5602 5606 5609 5637 5649 5701 5750 5794 5807 5754 5756 5809 5817 5819 5819 5812 5817 5832 5842 5848 5861 5869 5874 5874 5874 5874 5886 5885 5878 5867 5866 5865 5875 5874 5872 5865 5861 5856 5850 5841 5833 5826 5819 5811
5584 5588 5609 5638 5647 5684 5735 5762 5765 5776 5791 5803 5808 5811 5810 5813 5818 5822 5830 5839 5847 5855 5863 5869 5866 5865 5871 5872 5872 5868 5861 5876 5877 5869 5859 5857 5855 5854 5846 5839 5830 5820 5810 5800
5576 5596 5626 5629 5642 5669 5701 5721 5754 5779 5781 5784 5792 5796 5805 5804 5805 5812 5815 5824 5830 5835 5841 5849 5855 5859 5865 5864 5867 5863 5870 5870 5865 5859 5854 5853 5848 5849 5844 5833 5824 5812 5801 5790
5593 5611 5620 5638 5658 5656 5680 5702 5735 5758 5765 5775 5782 5782 5790 5790 5794 5798 5806 5811 5816 5819 5822 5829 5833 5837 5845 5859 5862 5863 5863 5863 5856 5850 5845 5840 5836 5836 5833 5826 5819 5807 5792 5778
5597 5614 5615 5629 5647 5654 5670 5685 5709 5735 5747 5757 5767 5770 5769 5777 5776 5785 5787 5793 5800 5806 5808 5811 5815 5818 5820 5828 5835 5846 5845 5843 5831 5831 5831 5824 5813 5809 5802 5797 5800 5792 5779 5771
5586 5596 5619 5621 5622 5636 5651 5668 5703 5721 5726 5729 5740 5751 5755 5761 5763 5768 5769 5775 5781 5787 5794 5794 5794 5796 5798 5802 5800 5803 5811 5825 5822 5810 5799 5799 5792 5784 5773 5779 5768 5748 5750 5720